Simultaneous Nadir Overpasses (SNOs) Predictions

Prediction of SNOs between AQUA and NPP Satellite Orbit:

Table of predicted SNOs for the next 14.0 days since TLE Epoch: 3/16/2012
Index Date (AQUA) Time (AQUA) Lat,Lon (AQUA) SZA (AQUA ) Date (NPP) Time (NPP) Lat,Lon (NPP) SZA (NPP ) Distance(km) Time Diff (sec)
1 03/18/2012 06:21:31 76.72, -33.97 97.51 03/18/2012 06:20:39 76.72, -33.96 97.55 0.36 52
2 03/18/2012 07:10:41 -77.53, 136.77 83.49 03/18/2012 07:11:06 -77.53, 136.77 83.51 0.02 25
3 03/20/2012 22:38:12 76.94, 82.67 96.16 03/20/2012 22:37:29 76.95, 82.72 96.19 1.33 43
4 03/20/2012 23:27:24 -77.66,-106.85 84.74 03/20/2012 23:27:58 -77.66,-106.83 84.77 0.30 34
5 03/23/2012 14:55:04 77.04,-161.19 94.97 03/23/2012 14:54:22 77.05,-161.11 94.99 2.08 42
6 03/23/2012 15:44:18 -77.67, 8.97 85.82 03/23/2012 15:44:53 -77.67, 8.98 85.85 0.25 35
7 03/26/2012 07:12:06 77.01, -45.58 93.94 03/26/2012 07:11:17 77.01, -45.48 93.96 2.63 49
8 03/26/2012 08:01:20 -77.64, 124.60 86.86 03/26/2012 08:01:48 -77.64, 124.60 86.88 0.18 28
9 03/28/2012 23:29:27 76.51, 68.36 93.47 03/28/2012 23:28:24 76.50, 68.26 93.55 2.87 63




NCC Satellite Simultaneous Nadir Overpasses (SNOs) Prediction Service
